Wetbulb
69.83 69.95 69.83 66.48 59.84 61.47 57.46 59.16 63.99 62.38 63.69 66.42 66.45 64.58 62.85 63.50 62.03 61.77 72.37 69.93 72.59 74.06 72.62 74.84 77.27 77.01 76.63 76.66 76.69 76.79 76.69 76.64 76.05 75.77 75.19 75.21 74.83 74.71 74.55 74.36 74.43 74.80 74.36 72.96 72.13 71.71 71.49 71.20 71.18
70.09 67.46 66.58 63.55 56.63 54.18 50.53 61.47 60.99 63.62 65.40 66.96 66.36 65.76 64.18 63.22 67.02 70.49 69.59 70.28 74.01 74.67 73.30 73.49 77.17 77.17 76.40 76.51 76.69 76.79 76.61 75.93 75.55 75.17 75.14 74.90 74.61 74.26 74.12 74.29 74.39 74.01 72.99 72.15 71.87 71.43 70.90 70.77 70.65
67.15 66.31 60.55 59.19 56.65 53.83 55.10 61.34 62.48 65.51 66.59 66.29 65.81 67.20 63.89 64.27 67.09 70.63 73.03 70.69 74.44 74.60 73.44 75.21 77.29 77.17 76.76 76.36 76.56 76.62 76.19 75.73 75.14 75.08 74.83 74.60 74.17 73.77 73.78 73.78 73.75 72.93 72.04 71.85 71.47 70.92 70.48 70.57 71.45
65.21 64.00 61.40 55.59 53.53 58.07 58.39 61.22 63.30 63.62 66.54 66.90 66.26 63.95 66.77 68.46 69.04 71.85 71.29 71.40 74.75 74.46 73.77 75.63 77.11 77.19 76.94 76.51 76.39 76.41 76.03 75.57 75.13 74.77 74.48 74.09 73.82 73.08 72.78 73.08 72.98 72.14 71.64 71.41 70.81 70.35 70.19 70.96 71.53
64.52 61.70 56.76 55.05 53.85 56.86 61.42 62.44 63.85 62.72 63.16 64.89 65.96 64.08 65.96 70.79 72.51 71.60 70.27 73.01 73.90 73.58 74.96 75.45 77.04 77.19 76.99 76.28 76.05 76.24 76.18 75.83 75.34 74.79 74.35 73.74 73.29 72.47 72.55 72.73 72.17 71.67 71.70 70.90 69.93 70.17 71.10 71.11 69.78
60.00 60.88 55.41 52.81 53.97 56.95 60.05 63.77 63.53 63.00 63.69 64.69 64.93 64.53 67.64 72.23 72.03 72.08 71.96 73.09 73.99 73.52 75.61 74.85 76.62 77.17 76.92 76.64 76.61 76.64 76.54 76.09 75.52 74.75 74.09 73.62 72.99 72.04 71.85 72.51 72.27 71.93 71.79 71.66 71.20 71.39 70.80 69.13 68.67
58.73 57.97 55.25 55.54 54.19 55.17 58.50 62.48 62.09 62.86 63.15 64.39 66.05 63.02 68.55 69.73 72.81 72.47 72.71 73.07 73.56 73.77 74.57 74.31 74.38 76.14 76.82 76.74 76.69 76.64 76.41 76.06 75.38 74.79 73.96 73.59 72.94 72.23 71.97 72.43 72.48 72.37 72.52 72.36 71.56 70.49 69.16 68.31 67.20
59.75 58.35 55.33 56.39 54.13 54.25 58.13 59.73 62.46 62.14 62.21 68.46 67.39 64.29 65.14 70.28 73.10 72.44 71.73 72.04 72.39 72.55 73.90 74.03 73.87 74.11 74.61 75.24 76.44 76.16 75.89 75.56 75.23 74.59 73.87 73.38 72.84 72.46 72.30 73.08 73.00 72.97 73.35 71.43 70.22 68.52 67.67 66.92 66.81
60.44 54.72 53.64 55.03 55.88 55.60 59.49 58.01 62.24 65.15 64.01 65.67 67.32 66.60 70.00 72.56 72.15 70.43 69.67 69.70 69.75 70.68 72.83 73.85 73.09 73.60 74.00 74.08 75.66 75.70 75.53 75.40 74.90 74.33 73.70 73.27 71.85 72.56 72.43 73.77 73.97 73.74 71.95 70.42 68.57 67.19 66.22 66.84 67.46
56.41 54.08 54.85 58.41 59.52 57.24 57.63 57.36 58.52 61.36 63.33 64.14 65.72 68.63 70.74 70.98 70.00 67.72 66.99 66.97 67.96 69.23 71.13 72.94 73.14 73.30 73.15 72.54 75.93 74.59 74.80 74.45 73.89 73.36 73.90 72.67 71.76 72.80 72.30 73.86 72.78 71.51 69.84 69.01 68.13 67.18 67.24 67.37 69.37
55.97 53.28 56.78 58.10 59.45 59.50 57.72 57.37 59.51 59.25 59.26 63.10 64.77 68.04 69.83 69.26 68.95 66.95 66.76 67.07 67.26 68.78 70.44 71.60 73.18 74.17 72.74 72.27 74.21 74.09 73.54 73.93 73.91 74.48 74.15 73.84 72.31 72.71 71.78 71.26 72.28 71.94 69.91 71.11 68.79 69.64 69.64 69.18 69.25
52.66 55.55 56.46 57.56 59.13 58.97 57.74 58.94 57.52 58.57 59.48 66.03 66.34 69.78 69.56 67.93 67.50 66.23 66.15 66.24 66.88 68.42 69.75 70.75 73.18 73.87 74.04 72.77 72.54 72.97 73.05 73.54 73.26 74.00 74.45 73.71 72.63 71.53 71.37 70.57 71.62 71.86 71.36 70.86 70.79 69.40 69.92 69.24 68.15
52.88 54.15 56.13 56.84 57.47 58.74 59.40 57.22 57.00 57.37 60.63 65.09 67.04 69.29 68.90 67.99 67.40 67.65 67.68 68.03 68.03 67.57 68.66 69.47 72.90 74.37 74.17 74.62 73.08 72.95 72.94 72.53 72.52 72.61 73.70 73.21 71.57 71.19 71.95 71.77 71.26 71.24 70.58 69.88 69.46 69.01 66.93 65.21 64.18
54.42 54.05 54.39 56.05 57.01 58.74 58.10 57.82 57.83 58.67 60.82 64.15 65.96 67.62 69.06 68.71 67.07 67.62 67.74 67.78 68.30 70.10 69.51 70.35 71.22 74.71 74.27 75.49 74.75 73.21 73.37 73.04 72.35 72.17 72.57 73.22 71.85 72.22 71.56 71.26 71.58 70.52 70.71 69.80 67.52 64.54 64.49 63.60 65.48
54.87 51.88 53.91 54.34 55.83 56.74 58.80 55.98 56.32 59.50 61.31 60.64 64.34 66.68 68.55 69.64 68.55 67.95 68.63 69.39 70.71 71.44 72.75 72.50 72.89 74.03 75.43 74.48 74.35 73.74 72.98 72.44 71.85 72.04 73.12 73.06 72.28 72.77 72.31 70.29 69.83 70.45 69.90 66.58 64.69 63.86 65.15 65.57 65.36
52.70 52.92 49.44 54.03 54.81 56.64 56.42 52.87 58.19 60.33 60.08 59.11 61.09 64.18 66.49 69.13 70.05 69.72 69.95 70.67 72.17 72.73 73.87 74.95 73.56 73.66 75.03 74.73 74.18 73.16 72.76 72.78 72.04 72.54 72.94 72.76 71.62 71.82 71.33 70.07 70.23 70.03 67.15 64.94 63.43 64.23 65.00 64.56 63.48
52.61 48.57 49.99 51.11 55.86 55.39 56.25 53.86 57.76 59.31 58.57 58.54 59.79 60.74 63.88 66.60 69.50 71.42 71.15 71.23 72.43 74.05 74.78 75.31 76.15 74.12 74.76 75.47 74.31 74.41 74.89 73.02 72.71 72.97 72.61 72.15 71.12 70.43 70.90 70.25 70.25 67.53 65.12 64.07 62.52 65.34 64.60 62.30 61.37
49.10 49.71 49.99 50.00 54.05 54.94 53.82 54.89 57.42 58.95 58.57 58.63 59.22 59.79 60.36 63.78 67.32 70.60 72.92 72.62 73.11 74.09 75.64 76.77 76.80 77.16 77.53 75.82 74.96 73.42 72.80 73.09 72.85 72.48 72.04 71.64 70.62 69.63 70.19 70.00 67.25 65.15 63.66 62.10 65.60 64.22 63.19 61.40 60.26
51.51 50.81 50.18 52.04 53.83 52.33 53.06 53.43 55.13 57.35 57.83 57.83 58.75 59.78 60.82 61.20 66.03 70.13 72.69 73.53 74.20 74.60 77.35 77.80 77.15 79.54 76.94 74.88 73.59 72.67 71.57 72.26 72.12 71.93 71.79 71.11 70.39 69.75 69.01 67.51 66.38 64.43 65.53 65.60 64.58 62.81 61.56 59.60 59.43
51.45 49.73 49.74 51.97 53.31 52.69 52.51 52.22 54.39 56.35 57.32 57.92 58.39 59.75 60.69 61.68 64.51 69.32 72.51 73.88 73.89 74.42 74.63 76.34 77.71 79.41 78.07 75.76 75.49 74.11 72.63 72.37 72.03 71.83 70.61 70.48 69.97 68.54 67.70 66.57 65.19 66.83 64.99 64.52 63.20 62.17 59.18 57.89 58.02
50.72 49.78 50.17 49.91 52.01 53.09 52.06 50.77 52.95 55.90 57.45 58.29 60.31 62.80 62.95 62.36 65.08 70.53 72.01 73.46 73.98 73.91 74.11 74.53 75.77 77.43 77.12 77.32 74.83 73.96 73.81 72.62 70.96 70.19 69.32 69.09 67.90 66.57 66.62 67.16 65.82 65.15 63.73 61.80 61.52 60.28 58.35 55.08 56.30
48.65 52.13 50.90 49.93 49.19 46.32 52.98 45.93 52.96 55.15 55.85 57.66 59.84 62.12 62.91 64.71 66.52 71.07 71.45 72.30 73.49 73.87 74.87 74.99 75.30 75.65 75.65 75.62 75.25 74.62 71.13 69.97 70.59 70.17 69.65 67.52 67.05 67.10 66.10 65.25 63.90 62.49 61.16 60.07 59.29 57.89 57.87 57.27 54.84
49.55 52.66 51.17 51.16 50.15 50.34 49.87 48.70 51.76 55.30 54.18 55.48 58.57 61.98 63.76 64.60 66.38 67.74 70.78 71.78 73.01 73.70 73.91 74.43 74.95 74.83 74.83 74.64 74.84 72.47 73.20 71.42 70.99 70.19 68.03 68.48 66.88 65.65 63.40 62.01 61.05 60.13 58.95 59.71 58.65 58.75 58.38 56.88 55.55
53.31 51.78 51.85 51.85 50.26 45.31 49.33 48.64 48.95 52.41 54.66 56.22 58.87 61.86 64.53 65.44 66.74 68.55 70.86 72.04 72.01 72.66 73.11 73.57 73.62 73.56 73.87 73.68 73.66 73.45 73.31 71.84 69.28 68.04 66.71 65.66 64.72 62.87 62.04 60.21 60.40 59.69 59.43 58.85 58.41 58.65 57.96 57.18 55.71
52.39 50.60 45.45 44.71 44.94 44.08 50.57 48.71 50.35 55.00 56.08 56.75 56.93 58.65 62.19 65.67 66.51 68.48 69.91 69.98 70.57 71.39 72.38 72.55 72.74 71.03 72.02 72.25 72.45 71.69 71.56 70.54 69.60 67.78 65.83 64.56 61.85 61.36 61.79 60.29 59.35 58.27 59.12 58.40 58.49 57.82 57.12 56.43 55.11
51.77 51.18 46.49 41.73 43.50 46.02 51.43 46.86 50.91 55.95 57.52 57.90 58.46 59.73 60.94 62.67 65.15 67.32 70.16 69.63 70.31 71.35 71.87 72.07 71.44 68.96 69.58 69.80 69.73 70.19 70.19 69.06 67.51 66.21 63.50 62.68 62.25 61.35 60.46 59.69 59.26 58.56 58.62 58.07 58.10 56.74 56.27 56.85 55.78
49.94 49.03 52.80 48.64 49.28 46.10 48.81 52.19 55.13 56.30 56.40 56.77 57.26 59.61 60.82 62.83 65.70 67.44 69.82 69.74 70.32 71.20 71.62 71.32 71.20 70.12 68.84 68.95 69.01 69.00 67.91 66.83 64.65 63.95 63.44 61.40 61.56 60.57 58.95 58.61 58.13 58.46 58.26 57.85 58.15 56.38 56.91 57.14 56.66
51.16 52.74 48.04 48.56 42.25 41.41 46.53 48.57 49.12 53.48 54.60 56.15 56.73 58.25 59.85 65.02 66.67 67.76 69.32 69.85 70.79 71.45 71.37 71.32 71.12 69.37 68.80 68.39 67.75 66.09 64.81 64.20 63.65 62.61 61.67 61.06 61.48 59.82 58.63 58.38 58.59 58.26 57.98 58.01 58.14 57.26 57.87 57.50 55.87
50.46 48.25 50.30 51.18 49.43 44.68 44.18 47.49 55.91 55.50 56.02 56.79 57.44 58.41 59.36 63.15 66.36 68.28 69.46 69.67 70.46 70.94 69.96 70.00 69.35 68.43 67.39 66.82 65.80 64.39 63.48 63.23 62.49 61.99 61.72 61.17 60.73 59.82 58.82 58.35 57.90 57.64 57.39 57.75 57.56 57.54 56.75 56.08 56.88
52.56 51.40 52.17 47.04 46.48 48.83 47.25 47.01 56.04 56.65 56.88 57.87 57.44 58.77 59.46 63.60 67.01 68.67 69.53 69.07 69.95 69.45 69.16 68.69 68.32 66.91 66.21 65.43 64.14 63.41 63.13 62.57 62.12 61.90 61.64 60.83 59.84 59.85 59.04 58.47 57.77 57.47 57.17 57.29 56.51 55.85 55.88 55.32 54.96
MSLP
1011.81 1010.94 1009.46 1008.18 1006.78 1003.58 1001.69 1002.30 1003.11 1002.52 1002.70 1003.64 1003.62 1003.58 1004.31 1004.58 1004.86 1006.04 1007.97 1008.68 1008.81 1010.08 1012.00 1013.42 1014.31 1014.83 1015.14 1015.51 1015.85 1016.00 1016.35 1016.67 1017.02 1017.06 1017.08 1017.09 1017.26 1017.36 1017.40 1017.43 1017.54 1017.50 1017.62 1017.72 1017.76 1017.67 1017.70 1017.69 1017.67
1009.95 1009.26 1008.54 1006.49 1004.06 1001.50 1004.14 1002.08 1002.28 1002.75 1003.75 1003.93 1003.93 1003.94 1004.24 1004.75 1005.92 1007.08 1008.23 1008.80 1008.93 1010.46 1012.11 1013.01 1014.49 1014.95 1015.46 1015.78 1016.05 1016.30 1016.61 1016.79 1017.06 1017.24 1017.41 1017.44 1017.53 1017.59 1017.64 1017.62 1017.70 1017.70 1017.76 1017.79 1017.78 1017.86 1017.83 1017.83 1017.80
1010.78 1008.97 1007.37 1004.16 1001.97 1001.03 1002.47 1001.89 1002.24 1003.36 1004.28 1004.01 1003.50 1004.34 1004.63 1005.69 1006.80 1007.03 1007.58 1008.95 1009.15 1010.67 1012.12 1013.17 1014.43 1015.03 1015.51 1015.89 1016.13 1016.36 1016.58 1016.86 1017.10 1017.36 1017.45 1017.53 1017.66 1017.73 1017.77 1017.81 1017.84 1017.82 1017.92 1017.90 1017.94 1018.08 1018.08 1018.06 1017.98
1008.84 1007.07 1006.10 1003.41 1001.25 1001.60 1001.95 1002.26 1002.86 1003.23 1003.43 1003.65 1003.92 1003.78 1005.27 1006.74 1006.92 1007.28 1008.73 1008.89 1009.44 1010.38 1011.62 1013.90 1014.61 1015.01 1015.57 1015.96 1016.23 1016.50 1016.70 1017.05 1017.35 1017.49 1017.58 1017.64 1017.74 1017.79 1017.97 1018.06 1018.01 1018.02 1018.05 1018.06 1018.18 1018.21 1018.22 1018.14 1018.06
1008.12 1006.50 1003.93 1002.01 1001.37 1002.13 1002.46 1002.80 1002.94 1003.07 1003.42 1003.34 1003.87 1003.90 1005.22 1007.19 1007.56 1008.32 1008.77 1008.86 1009.44 1010.06 1011.29 1013.74 1014.74 1015.22 1015.55 1015.97 1016.39 1016.71 1016.92 1017.17 1017.41 1017.48 1017.49 1017.62 1017.74 1017.80 1017.85 1017.96 1018.06 1018.17 1018.13 1018.20 1018.31 1018.26 1018.18 1018.12 1018.03
1006.83 1005.17 1003.21 1001.58 1001.55 1001.98 1002.55 1003.02 1003.06 1003.03 1003.36 1004.07 1003.69 1004.33 1005.28 1007.29 1007.80 1008.46 1008.86 1008.91 1009.19 1009.83 1011.29 1013.46 1014.79 1015.21 1015.66 1016.04 1016.37 1016.71 1017.02 1017.25 1017.33 1017.51 1017.66 1017.64 1017.72 1017.88 1017.98 1018.01 1018.09 1018.11 1018.20 1018.22 1018.27 1018.33 1018.35 1018.26 1018.11
1006.57 1004.58 1002.75 1002.47 1001.42 1002.12 1002.49 1003.28 1003.07 1003.15 1003.27 1003.44 1004.29 1004.24 1005.26 1006.58 1007.50 1008.36 1008.64 1008.95 1009.19 1009.85 1010.99 1013.31 1014.36 1015.19 1015.89 1016.24 1016.38 1016.80 1017.03 1017.23 1017.40 1017.51 1017.63 1017.65 1017.70 1017.82 1017.90 1017.90 1018.01 1018.12 1018.25 1018.22 1018.24 1018.30 1018.30 1018.27 1018.10
1006.36 1005.14 1003.32 1001.92 1001.35 1001.84 1002.88 1003.06 1003.34 1003.72 1003.24 1004.12 1004.68 1003.68 1004.07 1005.98 1007.63 1008.21 1008.42 1009.15 1009.48 1010.01 1010.64 1012.47 1013.66 1014.50 1015.16 1015.69 1016.54 1016.89 1017.04 1017.28 1017.39 1017.47 1017.54 1017.62 1017.66 1017.72 1017.78 1017.84 1017.88 1017.98 1018.10 1018.31 1018.37 1018.38 1018.34 1018.21 1018.03
1006.65 1005.66 1003.28 1001.74 1001.69 1001.55 1002.40 1002.44 1003.13 1003.94 1003.46 1003.96 1004.21 1004.68 1005.36 1006.55 1007.49 1007.89 1008.49 1009.12 1009.43 1009.98 1010.32 1011.27 1012.37 1013.28 1013.91 1014.06 1015.66 1016.66 1016.94 1017.07 1017.22 1017.34 1017.43 1017.50 1016.81 1016.70 1016.88 1017.19 1017.52 1017.92 1018.12 1018.21 1018.28 1018.31 1018.20 1017.93 1017.48
1006.21 1004.93 1003.09 1001.78 1002.27 1001.66 1002.00 1002.50 1002.75 1003.20 1003.14 1003.11 1004.02 1005.06 1005.80 1006.73 1007.31 1007.58 1008.18 1008.54 1009.08 1009.70 1010.07 1010.65 1011.44 1012.09 1012.88 1012.99 1014.52 1015.58 1015.72 1016.13 1016.22 1016.06 1016.30 1016.60 1015.80 1015.50 1015.93 1017.08 1017.64 1017.85 1018.11 1018.15 1018.10 1017.95 1017.69 1017.40 1016.10
1005.48 1004.71 1003.19 1002.24 1002.73 1002.50 1002.46 1002.50 1002.23 1002.76 1002.03 1001.93 1002.62 1004.43 1005.87 1006.61 1007.12 1007.20 1007.61 1008.03 1008.65 1009.55 1010.18 1010.64 1011.49 1011.96 1012.13 1012.50 1013.46 1014.21 1014.36 1014.80 1015.10 1015.45 1015.66 1015.69 1015.26 1015.59 1015.91 1016.01 1016.61 1017.02 1017.60 1016.90 1017.48 1016.82 1016.33 1016.14 1016.44
1004.97 1004.66 1003.89 1003.10 1002.79 1002.92 1002.88 1002.50 1002.49 1002.24 1001.95 1002.89 1003.15 1004.13 1005.65 1006.26 1006.71 1006.76 1007.09 1007.63 1008.23 1008.99 1009.78 1010.57 1011.62 1012.40 1012.37 1012.34 1013.03 1013.29 1013.53 1014.03 1014.34 1014.87 1015.62 1015.97 1015.80 1015.58 1015.84 1015.21 1015.10 1016.01 1015.73 1016.14 1016.23 1015.92 1016.13 1016.49 1016.43
1004.74 1004.66 1003.93 1003.76 1003.61 1003.26 1002.98 1002.91 1002.55 1002.35 1002.15 1003.25 1003.52 1004.30 1005.17 1005.83 1006.26 1006.45 1006.82 1007.11 1007.69 1008.55 1009.64 1010.40 1011.26 1012.28 1012.69 1012.93 1012.83 1013.11 1013.41 1013.84 1014.01 1014.54 1015.21 1015.45 1015.36 1015.27 1015.48 1015.48 1015.74 1015.62 1015.74 1015.87 1016.18 1016.52 1017.01 1017.03 1016.66
1004.62 1004.40 1004.08 1003.71 1003.36 1003.05 1002.86 1002.68 1002.29 1002.17 1002.20 1003.14 1003.63 1004.08 1004.68 1005.36 1005.90 1006.43 1006.88 1007.31 1007.95 1008.71 1009.67 1010.20 1011.12 1012.18 1012.52 1013.11 1013.12 1013.27 1013.53 1013.59 1014.13 1014.22 1014.71 1015.50 1015.40 1015.28 1015.48 1015.86 1016.00 1016.40 1016.36 1016.42 1016.82 1017.17 1017.04 1016.87 1016.06
1005.11 1004.70 1004.11 1003.68 1003.33 1002.90 1002.80 1002.59 1002.10 1001.74 1002.08 1002.23 1003.16 1003.80 1004.16 1004.90 1005.55 1006.18 1006.77 1007.42 1008.27 1009.03 1009.71 1010.39 1010.96 1011.81 1012.46 1012.82 1013.22 1013.36 1013.18 1013.50 1013.72 1014.04 1014.64 1015.33 1015.60 1015.72 1015.96 1015.99 1016.20 1016.18 1016.57 1017.07 1017.21 1017.15 1016.73 1015.98 1015.40
1005.02 1004.36 1003.13 1002.14 1002.60 1002.48 1003.31 1001.94 1000.94 1000.78 1001.11 1001.90 1002.12 1002.84 1003.76 1004.21 1004.81 1005.57 1006.31 1007.18 1007.90 1008.59 1009.53 1010.24 1010.63 1011.20 1012.39 1012.56 1013.07 1012.98 1012.95 1013.30 1013.38 1013.82 1014.45 1015.32 1015.55 1015.87 1016.42 1015.97 1016.07 1016.46 1017.13 1017.10 1017.25 1016.86 1015.95 1015.69 1015.43
1003.97 1003.02 1002.25 1001.54 1001.63 1002.37 1002.71 1001.87 1000.78 1000.60 1001.02 1001.38 1001.48 1001.69 1002.18 1003.48 1004.23 1004.68 1005.58 1006.51 1007.35 1008.27 1008.87 1009.82 1010.46 1010.55 1011.56 1012.44 1012.42 1012.75 1012.71 1013.32 1013.27 1013.73 1014.20 1015.14 1015.42 1015.97 1016.26 1015.91 1016.27 1017.24 1017.13 1017.09 1017.22 1016.29 1016.25 1015.93 1015.63
1002.48 1002.25 1002.10 1001.47 1001.58 1002.27 1002.07 1001.76 1001.16 1000.51 1000.58 1000.84 1001.17 1001.20 1001.38 1001.69 1003.07 1004.27 1004.95 1005.89 1006.76 1007.63 1008.51 1009.14 1009.89 1010.57 1010.91 1011.76 1012.38 1012.35 1012.48 1013.02 1013.08 1013.71 1014.12 1015.09 1015.76 1016.10 1016.42 1016.07 1017.11 1017.34 1017.12 1017.07 1016.34 1016.90 1016.67 1016.43 1015.68
1003.68 1003.42 1002.71 1002.13 1002.15 1002.49 1002.40 1001.80 1001.29 1000.88 1000.59 1000.23 1000.36 1000.58 1000.59 1001.25 1001.63 1003.35 1004.71 1005.68 1006.56 1007.36 1008.06 1008.79 1009.37 1010.06 1010.64 1011.17 1011.59 1011.82 1012.12 1012.75 1013.20 1013.67 1014.76 1015.57 1015.96 1016.16 1016.56 1016.38 1016.89 1017.26 1016.80 1016.55 1017.01 1016.83 1016.56 1016.21 1015.77
1004.63 1004.10 1003.31 1002.91 1002.82 1003.06 1002.49 1001.84 1001.18 1000.47 1000.27 1000.00 999.81 1000.00 1000.24 1000.51 1001.21 1002.89 1004.58 1005.91 1006.72 1007.38 1008.12 1008.81 1009.24 1009.81 1010.55 1010.90 1011.21 1011.34 1011.94 1012.45 1013.20 1013.87 1015.24 1015.61 1015.74 1016.21 1016.43 1016.77 1016.80 1016.37 1016.57 1016.56 1016.58 1016.80 1016.70 1016.20 1015.69
1004.61 1004.10 1003.55 1003.27 1003.10 1003.05 1002.69 1001.60 1000.81 1000.17 999.77 999.56 999.90 1000.05 1000.24 1000.14 1001.26 1003.38 1005.06 1006.25 1007.11 1007.58 1008.05 1008.71 1009.35 1009.77 1010.50 1010.69 1011.33 1011.85 1012.14 1012.78 1013.51 1014.30 1015.14 1015.50 1015.99 1016.26 1016.47 1016.38 1016.45 1016.57 1016.70 1016.18 1016.58 1016.73 1016.94 1016.31 1015.96
1004.22 1003.95 1003.97 1004.12 1003.72 1002.26 1001.11 1000.25 999.25 998.77 998.94 999.25 999.12 999.50 1000.26 1000.66 1001.35 1003.33 1004.90 1005.95 1006.76 1007.32 1007.98 1008.59 1009.35 1009.91 1010.62 1010.93 1011.17 1011.87 1012.20 1012.54 1013.06 1013.81 1014.37 1015.51 1016.04 1015.88 1015.99 1016.34 1016.49 1016.76 1016.80 1016.79 1016.68 1016.55 1016.96 1016.65 1015.92
1004.47 1004.33 1004.38 1004.29 1003.55 1002.77 1001.48 1000.60 999.17 998.36 998.63 998.71 998.41 999.27 1000.23 1000.78 1001.78 1002.58 1004.06 1005.43 1006.43 1007.19 1008.00 1008.77 1009.43 1010.01 1010.34 1010.91 1011.27 1012.05 1011.98 1012.25 1013.04 1013.53 1015.03 1015.19 1015.92 1015.97 1016.18 1016.48 1016.72 1016.85 1016.83 1016.61 1016.97 1016.92 1016.88 1016.80 1016.19
1004.80 1004.89 1004.77 1004.34 1003.52 1002.21 1001.34 1000.60 998.84 998.05 997.79 997.93 998.58 999.59 1000.64 1001.19 1001.89 1002.85 1004.19 1005.22 1006.56 1007.62 1008.17 1009.01 1009.64 1010.12 1010.65 1011.11 1011.33 1011.83 1011.80 1012.34 1013.12 1013.95 1014.64 1014.89 1015.26 1015.95 1016.32 1016.47 1016.67 1016.89 1016.98 1016.79 1016.85 1016.90 1016.84 1016.81 1016.92
1004.64 1004.78 1003.88 1002.95 1002.12 1000.96 1000.19 999.68 998.91 998.18 998.39 998.68 999.05 999.52 999.87 1000.91 1001.87 1003.01 1004.44 1006.22 1006.69 1006.91 1007.78 1008.91 1009.65 1010.35 1010.88 1011.19 1011.64 1012.02 1012.41 1013.01 1013.43 1014.07 1014.05 1014.32 1014.80 1015.38 1016.00 1016.66 1016.77 1016.77 1016.86 1016.95 1016.85 1016.95 1016.94 1016.70 1016.73
1004.05 1004.26 1003.55 1002.44 1001.19 999.96 998.66 999.06 998.92 998.97 999.08 999.21 999.68 1000.01 1000.10 1000.63 1001.19 1002.32 1004.15 1005.76 1006.22 1006.69 1007.66 1008.55 1009.84 1010.86 1011.35 1011.88 1012.29 1012.63 1012.96 1013.24 1013.60 1013.97 1014.13 1014.48 1014.86 1015.38 1016.22 1016.46 1016.55 1016.74 1016.85 1016.83 1016.82 1016.73 1016.41 1016.41 1016.30
1003.81 1003.42 1003.79 1003.62 1003.00 1001.89 1000.12 998.88 998.97 999.02 999.34 999.51 999.31 999.54 1000.08 1000.70 1001.41 1002.23 1003.61 1005.50 1005.97 1006.65 1007.59 1008.54 1009.53 1010.68 1011.44 1011.95 1012.44 1012.92 1013.09 1013.49 1013.66 1014.47 1014.96 1015.14 1015.45 1015.42 1016.01 1016.21 1016.37 1016.38 1016.37 1016.43 1016.59 1016.28 1016.03 1016.05 1015.98
1003.80 1003.36 1003.47 1003.89 1003.19 1001.96 1000.36 999.27 998.55 998.73 999.09 999.12 999.17 999.33 999.56 1000.23 1001.68 1002.52 1003.86 1005.36 1005.88 1006.66 1007.84 1008.69 1009.47 1010.48 1011.26 1011.95 1012.55 1013.04 1013.45 1013.87 1014.35 1014.76 1014.87 1015.11 1015.40 1015.72 1015.78 1015.88 1015.96 1016.07 1016.13 1016.06 1016.05 1015.71 1015.30 1015.35 1015.40
1003.11 1003.43 1003.70 1003.63 1003.22 1002.21 1000.82 999.33 999.04 999.14 999.61 999.77 999.75 999.47 999.37 999.87 1001.57 1002.55 1003.86 1005.34 1005.87 1006.79 1007.96 1008.81 1009.60 1010.44 1011.22 1011.82 1012.38 1012.94 1013.40 1013.84 1014.26 1014.58 1014.94 1015.25 1015.46 1015.63 1015.58 1015.50 1015.52 1015.62 1015.61 1015.55 1015.60 1015.55 1015.26 1014.85 1014.78
1002.76 1002.62 1002.86 1003.22 1003.21 1002.93 1002.24 1000.76 999.81 1000.00 1000.04 1000.04 999.98 999.62 999.29 1000.03 1001.41 1002.39 1003.56 1005.31 1005.82 1006.84 1007.73 1008.86 1009.52 1010.25 1010.95 1011.58 1012.18 1012.72 1013.34 1013.94 1014.27 1014.51 1014.86 1015.16 1015.40 1015.33 1015.30 1015.29 1015.23 1015.17 1015.15 1015.10 1015.01 1014.75 1014.56 1014.36 1014.40
Wind_Speed
9 12 11 8 10 11 5 11 8 6 8 4 6 10 15 6 15 7 12 11 16 20 19 17 13 13 13 13 12 13 11 10 9 8 8 8 7 7 7 7 7 7 7 7 7 7 7 7 6
13 6 9 9 14 6 1 10 5 7 10 4 1 3 3 13 9 10 12 12 17 19 18 18 14 13 12 12 12 11 11 11 10 9 8 7 7 6 6 6 6 6 6 6 6 6 5 5 5
14 10 11 12 12 9 4 13 6 12 5 8 3 3 7 12 4 8 15 15 18 18 17 18 16 13 13 13 12 12 12 11 11 9 8 7 6 6 5 5 5 5 4 5 5 4 4 4 4
8 10 10 12 8 11 5 8 5 0 9 5 7 1 8 5 3 7 14 18 18 19 18 21 16 15 13 13 12 11 11 10 9 8 7 7 6 5 4 4 4 4 3 4 3 3 3 2 2
11 10 14 16 1 3 1 1 3 1 2 8 5 1 9 10 10 14 15 15 16 18 19 18 16 14 14 14 12 11 10 9 9 9 8 7 6 5 5 4 3 2 3 3 2 2 2 2 1
12 14 15 11 7 6 2 3 3 5 3 6 2 3 12 12 13 13 13 14 15 16 20 17 16 15 13 13 12 11 10 10 9 8 7 6 6 5 4 4 3 2 2 2 3 3 3 2 1
15 15 18 11 3 4 8 4 4 6 3 4 5 3 11 11 15 12 13 12 12 14 17 16 16 14 12 11 12 10 10 9 8 7 6 6 6 6 6 5 4 2 2 4 4 4 3 3 3
13 14 22 15 8 7 5 4 3 2 5 7 4 3 4 14 12 12 12 11 11 13 16 17 15 15 14 14 11 10 10 8 7 7 7 7 6 7 7 7 8 5 5 4 4 3 3 4 7
14 13 17 16 12 3 9 6 8 3 8 4 4 5 9 15 13 13 13 12 12 11 13 16 16 16 15 15 14 11 10 9 9 9 9 8 9 12 11 9 10 6 5 5 5 5 6 10 15
13 14 23 11 8 5 2 5 1 4 8 9 7 5 8 13 12 12 13 13 14 13 13 13 13 15 13 10 16 12 12 10 10 11 10 9 10 0 5 11 9 7 6 7 9 9 12 13 10
16 17 22 13 6 8 10 10 3 8 13 12 11 12 12 13 12 12 13 13 13 13 10 10 7 7 11 8 10 7 7 7 8 8 6 7 6 5 6 6 7 8 12 8 11 10 10 10 10
18 20 18 18 11 7 12 11 9 9 8 7 4 15 13 12 13 13 13 14 14 15 14 12 13 9 8 7 7 7 6 6 5 7 7 6 4 5 6 4 2 2 5 4 8 5 8 9 11
12 16 19 13 18 15 10 12 13 12 4 3 5 11 14 12 12 11 10 11 13 13 12 12 14 10 9 6 6 6 5 5 6 4 7 7 6 4 3 3 5 3 3 6 5 7 7 9 10
11 13 19 14 15 16 15 13 12 12 3 9 7 11 13 14 13 12 11 11 10 11 13 12 12 12 12 9 7 6 4 4 5 5 7 8 6 3 5 4 3 3 3 5 4 5 7 8 10
13 13 16 17 18 15 10 15 19 17 6 13 16 10 12 14 15 14 13 11 12 11 12 10 12 14 12 13 10 7 7 7 6 7 5 5 6 4 6 3 4 4 2 4 4 6 8 10 9
14 16 16 18 19 16 5 17 21 21 12 11 12 16 12 16 17 17 16 16 14 14 13 13 12 15 13 10 9 8 7 6 6 5 5 6 6 3 5 5 4 2 3 3 4 8 8 9 9
15 13 14 16 14 9 13 18 21 5 5 10 12 11 17 15 15 17 19 18 17 15 16 15 13 13 15 12 9 9 7 6 6 5 5 6 5 5 7 4 2 2 3 4 7 6 8 10 10
8 13 11 7 11 12 15 17 19 16 10 12 14 15 13 18 19 16 17 18 17 17 15 14 13 13 12 10 9 8 7 6 6 5 5 7 5 5 5 1 2 4 4 8 5 7 9 10 10
10 11 12 9 7 3 14 17 18 19 16 20 14 18 18 15 17 18 16 15 15 14 14 13 13 12 9 10 9 9 8 7 6 5 6 6 5 6 3 4 3 4 8 4 6 7 9 9 10
10 13 13 11 9 10 15 17 18 19 18 21 15 13 15 15 14 14 16 13 11 12 13 12 11 11 10 9 7 7 7 7 6 6 5 6 6 5 4 3 6 4 6 7 6 5 8 9 8
14 14 12 12 11 10 14 18 20 18 21 9 12 11 15 12 15 13 13 14 14 14 14 13 12 11 11 9 6 4 4 4 6 7 6 6 5 5 5 5 3 4 5 7 6 7 8 9 9
14 11 8 10 14 12 16 13 15 14 12 13 12 7 9 7 10 17 15 14 14 13 11 10 11 11 10 11 9 10 9 8 7 8 6 7 6 5 4 3 3 4 5 6 6 5 7 8 9
16 7 7 14 13 15 17 10 13 6 7 12 10 6 1 5 9 11 14 14 12 11 9 9 10 12 11 11 10 10 9 7 6 5 8 4 4 3 3 2 3 4 5 5 6 6 6 8 7
13 9 12 14 14 15 17 15 16 11 13 8 5 6 2 4 6 5 8 7 8 9 10 10 11 11 11 12 10 11 8 8 7 7 7 7 6 6 3 3 2 4 5 5 5 5 7 7 6
13 11 11 12 12 13 16 16 13 9 9 6 4 9 7 8 7 9 11 8 11 14 13 12 12 10 9 8 7 6 8 8 8 8 6 4 4 4 6 1 3 4 5 5 5 6 6 7 5
15 13 11 14 11 11 10 5 5 11 9 4 6 10 9 9 8 10 13 9 12 13 13 13 13 10 8 9 9 8 10 7 7 5 5 4 1 2 3 3 3 4 5 5 5 7 7 6 6
16 14 10 15 16 15 16 8 10 12 11 11 13 4 6 6 6 7 12 11 12 13 13 12 13 13 11 11 9 9 8 7 6 7 4 4 1 3 4 3 4 5 5 6 7 8 7 7 8
14 13 10 10 14 16 13 13 10 9 7 5 5 7 5 7 5 7 9 11 12 12 11 11 12 12 11 11 10 9 9 7 7 6 4 3 2 2 3 4 5 5 7 7 7 8 8 6 7
9 13 11 12 11 12 11 8 11 10 5 7 10 12 11 5 4 8 10 11 12 12 13 11 11 13 12 12 10 10 9 9 7 6 5 4 4 4 5 5 6 7 8 8 8 10 11 12 7
14 15 11 11 11 12 14 14 18 13 8 12 14 15 10 4 3 9 12 13 13 13 13 13 12 13 13 12 12 11 9 8 7 5 5 4 5 5 5 6 7 8 9 9 10 11 11 11 6
Wind_Direction
206 219 243 257 247 224 213 79 18 116 145 56 360 8 22 4 9 32 134 148 157 130 145 153 147 150 144 142 142 138 137 132 136 134 129 128 125 120 112 103 101 98 94 88 82 74 67 58 50
264 264 240 273 251 282 348 101 159 56 54 340 214 203 190 68 41 102 134 161 153 133 144 154 149 147 147 148 144 137 136 140 146 147 144 131 128 115 105 103 102 99 99 98 83 76 70 61 48
263 262 271 242 255 360 154 81 57 88 60 292 267 113 19 50 57 129 115 165 148 143 152 136 149 150 153 155 150 147 149 156 157 155 146 136 126 116 107 108 107 99 95 84 82 73 61 48 34
273 242 239 256 325 56 33 33 32 115 169 174 330 159 116 48 119 97 145 159 144 149 155 136 151 153 158 160 157 161 159 158 156 151 149 146 139 123 121 116 108 98 88 79 80 73 62 45 59
239 259 266 248 23 42 198 49 348 349 8 12 19 178 88 85 89 128 152 161 157 148 133 151 156 160 162 164 168 167 166 163 168 169 163 157 146 151 150 148 133 116 90 89 98 127 144 155 159
281 254 268 285 90 121 195 53 288 298 68 17 268 335 95 122 139 139 162 166 171 146 130 146 160 163 165 167 171 173 172 175 173 172 172 163 165 174 176 173 154 132 129 139 152 175 181 207 238
266 282 276 282 81 236 51 352 282 273 235 59 20 219 100 155 132 160 171 165 158 149 142 153 167 167 164 172 174 177 175 178 178 177 182 184 185 192 198 191 183 172 204 170 175 179 196 216 238
268 283 283 270 245 131 103 254 139 240 296 70 296 346 74 121 140 156 151 160 165 161 154 158 173 173 180 177 179 182 181 185 185 190 197 201 206 209 210 209 196 187 177 183 188 198 214 234 240
265 267 262 260 253 161 159 262 100 341 278 195 132 33 62 121 157 165 148 174 165 177 165 162 176 173 192 180 168 183 189 192 198 206 207 208 235 190 192 128 133 157 169 178 194 210 236 248 247
234 248 255 284 302 313 76 272 323 248 195 197 180 124 129 152 165 168 170 177 169 179 169 175 181 167 189 189 143 193 190 204 207 211 190 220 231 275 36 105 126 146 177 202 204 217 237 250 271
235 250 268 293 250 282 305 289 133 263 264 210 160 135 152 164 174 175 179 177 173 169 175 185 173 169 190 189 162 180 203 199 202 223 223 228 289 201 210 195 178 189 197 218 203 212 230 350 320
245 256 266 292 284 250 264 300 297 274 306 44 1 129 165 176 177 181 179 169 177 167 174 178 158 176 226 176 188 197 199 190 207 190 198 249 215 232 268 264 310 193 243 335 267 296 342 308 311
248 260 261 254 267 270 276 274 278 285 287 178 144 149 173 185 179 181 180 170 171 156 156 177 157 177 191 233 184 224 208 186 218 196 187 249 227 235 244 258 271 329 328 275 317 323 329 299 282
252 254 254 249 255 249 257 271 270 259 327 166 188 184 182 185 184 170 170 169 148 150 154 165 175 171 194 203 225 200 211 220 223 202 213 202 242 216 245 212 253 337 313 311 339 301 297 284 287
265 260 255 246 251 253 262 267 249 250 176 214 186 211 198 187 187 180 177 174 174 163 159 175 187 174 204 192 200 211 200 218 204 224 197 221 211 164 272 233 245 265 349 310 296 286 272 271 300
247 248 257 222 221 228 241 263 241 230 190 212 221 189 215 193 198 188 186 184 177 184 181 186 197 178 192 196 198 212 215 219 215 215 177 214 213 193 223 231 255 32 280 317 278 278 291 303 309
220 260 222 271 183 233 209 252 255 137 228 258 258 232 190 206 205 198 192 189 185 194 179 194 199 212 182 207 208 213 206 219 215 204 199 178 195 209 260 263 244 269 285 287 259 302 325 310 310
298 204 241 259 183 202 249 235 263 288 271 215 250 256 251 198 195 203 198 196 187 191 196 193 194 213 187 189 214 206 209 204 216 201 216 150 199 217 243 179 295 263 278 248 335 329 312 304 301
335 304 302 313 292 254 279 280 276 270 263 271 228 248 237 252 191 186 190 197 192 197 188 202 196 184 208 199 199 208 205 205 193 192 107 157 189 206 206 234 222 249 242 334 293 293 306 311 305
258 263 264 267 267 296 278 263 263 262 260 249 266 283 277 249 183 169 175 185 203 199 200 203 209 192 196 202 208 215 202 188 195 152 180 202 189 174 224 273 232 276 305 293 286 313 307 302 306
245 263 278 295 308 263 269 267 260 253 250 267 267 262 266 218 172 151 169 190 202 207 199 199 201 192 192 212 189 175 159 155 171 153 182 183 182 190 212 228 281 301 280 294 357 304 303 301 309
251 239 259 275 265 267 245 260 268 204 208 230 234 204 217 201 191 172 189 198 201 201 196 195 189 183 189 196 174 190 180 187 196 177 158 144 200 205 205 248 284 312 321 308 293 308 327 288 310
260 298 296 260 264 275 268 242 281 212 211 237 223 134 168 187 198 194 176 189 190 197 172 175 173 175 173 175 181 178 212 168 163 141 130 192 156 190 219 274 326 310 289 344 300 295 317 306 308
261 272 249 256 253 250 247 257 267 245 218 179 67 146 140 226 171 186 175 145 174 182 174 165 167 165 163 176 176 203 181 145 161 170 173 179 175 172 163 318 304 315 310 294 316 324 286 328 317
241 230 248 228 222 245 242 232 237 317 343 318 325 307 191 184 226 179 165 181 189 187 166 162 162 157 161 164 153 144 148 170 166 168 199 160 179 195 138 251 284 314 336 303 305 311 304 269 299
195 243 264 293 286 302 176 233 264 240 289 327 289 276 276 271 225 187 159 196 191 172 170 164 151 142 149 146 149 152 154 162 157 204 129 196 189 150 110 257 278 289 284 290 295 280 280 313 291
250 255 259 288 280 277 286 246 184 198 224 263 254 202 266 268 264 201 159 192 196 170 168 165 162 156 163 161 157 153 159 155 123 125 169 149 88 155 188 239 274 280 279 284 287 270 291 281 275
253 263 231 227 263 274 273 248 261 149 197 277 307 293 332 145 251 197 175 188 194 167 153 173 164 158 161 159 156 152 149 146 145 150 190 143 113 234 244 239 253 274 280 279 278 280 286 296 287
179 234 243 289 303 303 289 258 44 29 352 313 312 304 320 61 195 194 174 179 192 162 174 168 168 162 163 164 162 154 158 153 157 157 172 187 204 228 239 254 269 275 280 281 283 281 277 276 294
252 282 235 232 241 236 261 280 317 327 285 282 300 286 309 48 187 185 175 180 189 174 172 172 172 170 170 168 164 162 160 160 161 178 184 199 229 243 264 273 277 281 284 289 281 281 293 295 323